DAL1448 KFLL-KJAX

Flight info

Callsign DAL1448
Flight time N/A
Altitude 30000
Route FRSBE2 STYMY ORL/N0430F310 HAINY QUBEN2
Aircraft A320/M-SDE3FGHIRWY/LB1

Departure

Time 2026-05-04 00:13
Airport Fort Lauderdale Hollywood International Airport (KFLL)

Arrival

Time N/A
Airport Jacksonville International Airport (KJAX)
Time Latitude Longitude Altitude Speed Heading
2026-05-03 23:03 26.07373 -80.14739 25 ft 0 kts 147°
2026-05-03 23:12 26.07384 -80.14746 22 ft 3 kts 147°
2026-05-03 23:12 26.07399 -80.14757 23 ft 3 kts 147°
2026-05-03 23:13 26.07414 -80.14768 22 ft 3 kts 147°
2026-05-03 23:13 26.07428 -80.14778 24 ft 3 kts 147°
2026-05-03 23:13 26.07443 -80.14788 23 ft 3 kts 147°
2026-05-03 23:13 26.07458 -80.14800 24 ft 3 kts 163°
2026-05-03 23:14 26.07474 -80.14799 26 ft 2 kts 233°
2026-05-03 23:14 26.07478 -80.14782 24 ft 2 kts 280°
2026-05-03 23:14 26.07471 -80.14766 24 ft 2 kts 330°
2026-05-03 23:14 26.07458 -80.14758 26 ft 0 kts 329°
2026-05-03 23:16 26.07460 -80.14759 22 ft 3 kts 330°
2026-05-03 23:16 26.07501 -80.14769 24 ft 10 kts 353°
2026-05-03 23:17 26.07543 -80.14821 22 ft 9 kts 254°
2026-05-03 23:17 26.07492 -80.14907 20 ft 18 kts 252°
2026-05-03 23:17 26.07488 -80.15040 20 ft 17 kts 270°
2026-05-03 23:17 26.07490 -80.15167 18 ft 15 kts 270°
2026-05-03 23:18 26.07490 -80.15289 16 ft 16 kts 270°
2026-05-03 23:18 26.07491 -80.15413 16 ft 15 kts 270°
2026-05-03 23:18 26.07491 -80.15520 18 ft 12 kts 270°
2026-05-03 23:18 26.07492 -80.15626 19 ft 19 kts 270°
2026-05-03 23:19 26.07493 -80.15789 20 ft 20 kts 270°
2026-05-03 23:19 26.07494 -80.15911 22 ft 4 kts 270°
2026-05-03 23:19 26.07494 -80.15912 22 ft 0 kts 270°
2026-05-03 23:20 26.07494 -80.15916 22 ft 0 kts 270°
2026-05-03 23:21 26.07494 -80.15917 22 ft 0 kts 270°
2026-05-03 23:21 26.07494 -80.15921 22 ft 0 kts 270°
2026-05-03 23:36 26.07493 -80.15967 23 ft 5 kts 269°
2026-05-03 23:36 26.07493 -80.15976 23 ft 0 kts 270°
2026-05-03 23:38 26.07494 -80.15999 24 ft 10 kts 271°
2026-05-03 23:39 26.07494 -80.16026 25 ft 0 kts 271°
2026-05-03 23:40 26.07494 -80.16036 25 ft 0 kts 271°
2026-05-03 23:43 26.07494 -80.16047 25 ft 6 kts 271°
2026-05-03 23:44 26.07495 -80.16076 25 ft 3 kts 270°
2026-05-03 23:44 26.07495 -80.16091 25 ft 1 kts 270°
2026-05-03 23:44 26.07495 -80.16097 25 ft 0 kts 270°
2026-05-03 23:44 26.07495 -80.16098 25 ft 0 kts 270°
2026-05-03 23:49 26.07495 -80.16129 25 ft 8 kts 271°
2026-05-03 23:49 26.07496 -80.16156 25 ft 2 kts 271°
2026-05-03 23:49 26.07496 -80.16186 25 ft 3 kts 270°
2026-05-03 23:49 26.07496 -80.16199 25 ft 0 kts 270°
2026-05-03 23:52 26.07496 -80.16200 25 ft 1 kts 270°
2026-05-03 23:52 26.07496 -80.16214 25 ft 4 kts 270°
2026-05-03 23:53 26.07496 -80.16224 25 ft 0 kts 270°
2026-05-03 23:54 26.07496 -80.16228 25 ft 3 kts 270°
2026-05-03 23:54 26.07496 -80.16262 24 ft 5 kts 270°
2026-05-03 23:54 26.07496 -80.16279 24 ft 0 kts 270°
2026-05-03 23:55 26.07496 -80.16280 24 ft 0 kts 270°
2026-05-03 23:55 26.07496 -80.16281 24 ft 0 kts 270°
2026-05-03 23:56 26.07495 -80.16284 24 ft 3 kts 270°
2026-05-03 23:56 26.07495 -80.16292 24 ft 0 kts 270°
2026-05-03 23:57 26.07495 -80.16316 24 ft 12 kts 270°
2026-05-03 23:57 26.07496 -80.16359 24 ft 0 kts 272°
2026-05-03 23:58 26.07496 -80.16362 24 ft 0 kts 272°
2026-05-03 23:59 26.07497 -80.16402 24 ft 0 kts 270°
2026-05-04 00:01 26.07497 -80.16416 24 ft 0 kts 270°
2026-05-04 00:02 26.07497 -80.16425 5 ft 4 kts 270°
2026-05-04 00:02 26.07497 -80.16430 5 ft 0 kts 270°
2026-05-04 00:03 26.07497 -80.16449 24 ft 10 kts 270°
2026-05-04 00:03 26.07497 -80.16485 24 ft 0 kts 270°
2026-05-04 00:04 26.07497 -80.16487 24 ft 3 kts 270°
2026-05-04 00:04 26.07497 -80.16505 25 ft 0 kts 271°
2026-05-04 00:05 26.07497 -80.16506 25 ft 1 kts 271°
2026-05-04 00:05 26.07497 -80.16546 24 ft 8 kts 270°
2026-05-04 00:06 26.07498 -80.16589 24 ft 5 kts 273°
2026-05-04 00:06 26.07506 -80.16623 25 ft 2 kts 298°
2026-05-04 00:06 26.07507 -80.16623 25 ft 0 kts 300°
2026-05-04 00:07 26.07513 -80.16632 24 ft 4 kts 310°
2026-05-04 00:07 26.07543 -80.16644 23 ft 0 kts 357°
2026-05-04 00:09 26.07563 -80.16644 22 ft 6 kts 359°
2026-05-04 00:10 26.07582 -80.16644 24 ft 0 kts
2026-05-04 00:11 26.07584 -80.16644 24 ft 2 kts
2026-05-04 00:11 26.07660 -80.16641 21 ft 16 kts 11°
2026-05-04 00:12 26.07695 -80.16546 23 ft 13 kts 90°
2026-05-04 00:12 26.07695 -80.16500 24 ft 0 kts 91°
2026-05-04 00:12 26.07695 -80.16489 24 ft 11 kts 91°
2026-05-04 00:12 26.07693 -80.16112 24 ft 84 kts 90°
2026-05-04 00:13 26.07688 -80.15242 18 ft 138 kts 90°
2026-05-04 00:13 26.07683 -80.14016 54 ft 176 kts 90°
2026-05-04 00:13 26.07673 -80.12646 598 ft 178 kts 86°
2026-05-04 00:13 26.07717 -80.11178 971 ft 202 kts 86°
2026-05-04 00:14 26.07915 -80.09554 1315 ft 223 kts 69°
2026-05-04 00:14 26.08630 -80.07927 1686 ft 246 kts 51°
2026-05-04 00:14 26.10008 -80.06752 2264 ft 257 kts 21°
2026-05-04 00:14 26.11134 -80.06304 2761 ft 262 kts 17°
2026-05-04 00:15 26.13463 -80.05390 3805 ft 269 kts 16°
2026-05-04 00:15 26.14672 -80.05071 4310 ft 271 kts
2026-05-04 00:15 26.16559 -80.05105 5048 ft 273 kts 346°
2026-05-04 00:15 26.18376 -80.05707 5791 ft 274 kts 337°
2026-05-04 00:16 26.20173 -80.06443 6547 ft 276 kts 331°
2026-05-04 00:16 26.21771 -80.07593 7249 ft 274 kts 314°
2026-05-04 00:16 26.22981 -80.09206 7983 ft 271 kts 297°
2026-05-04 00:16 26.23752 -80.11109 8726 ft 270 kts 289°
2026-05-04 00:17 26.24440 -80.13063 9506 ft 272 kts 289°
2026-05-04 00:17 26.25139 -80.15029 10234 ft 275 kts 290°
2026-05-04 00:17 26.26057 -80.17002 10470 ft 300 kts 299°
2026-05-04 00:17 26.27218 -80.19038 10656 ft 322 kts 299°
2026-05-04 00:18 26.28441 -80.21177 11180 ft 330 kts 299°
2026-05-04 00:18 26.29666 -80.23317 11847 ft 334 kts 299°
2026-05-04 00:18 26.30919 -80.25508 12527 ft 337 kts 299°